Time,TemperatureF,DewpointF,PressureIn,WindDirection,WindDirectionDegrees,WindSpeedMPH,WindSpeedGustMPH,Humidity,HourlyPrecipIn,Conditions,Clouds,dailyrainin,SoftwareType,DateUTC
2013-06-12 00:00:00,56.0,-99.9,-100.00,South,174,3.0,-999.0,-999,-99.99,,,-99.99,,2013-06-12 07:00:00,
2013-06-12 01:00:00,55.0,-99.9,-100.00,SSE,159,3.0,-999.0,-999,-99.99,,,-99.99,,2013-06-12 08:00:00,
2013-06-12 02:00:00,54.0,-99.9,-100.00,SSE,165,2.0,-999.0,-999,-99.99,,,-99.99,,2013-06-12 09:00:00,
2013-06-12 03:00:00,54.0,-99.9,-100.00,South,182,3.0,-999.0,-999,-99.99,,,-99.99,,2013-06-12 10:00:00,
2013-06-12 03:53:00,54.0,-99.9,-100.00,South,182,3.0,-999.0,-999,-99.99,,,-99.99,,2013-06-12 10:53:00,
2013-06-12 04:00:00,54.0,-99.9,-100.00,South,170,2.0,-999.0,-999,-99.99,,,-99.99,,2013-06-12 11:00:00,
2013-06-12 05:00:00,54.0,-99.9,-100.00,South,184,3.0,-999.0,-999,-99.99,,,-99.99,,2013-06-12 12:00:00,
2013-06-12 06:00:00,54.0,-99.9,-100.00,SSE,159,2.0,-999.0,-999,-99.99,,,-99.99,,2013-06-12 13:00:00,
2013-06-12 07:00:00,55.0,-99.9,-100.00,SSE,152,3.0,-999.0,-999,-99.99,,,-99.99,,2013-06-12 14:00:00,
2013-06-12 08:00:00,56.0,-99.9,-100.00,SSE,165,3.0,-999.0,-999,-99.99,,,-99.99,,2013-06-12 15:00:00,
2013-06-12 08:52:00,56.0,-99.9,-100.00,SSE,165,3.0,-999.0,-999,-99.99,,,-99.99,,2013-06-12 15:52:00,
2013-06-12 09:00:00,59.0,-99.9,-100.00,SSE,154,3.0,-999.0,-999,-99.99,,,-99.99,,2013-06-12 16:00:00,
2013-06-12 09:53:00,59.0,-99.9,-100.00,SSE,154,3.0,-999.0,-999,-99.99,,,-99.99,,2013-06-12 16:53:00,
2013-06-12 10:00:00,63.0,-99.9,-100.00,ESE,113,3.0,-999.0,-999,-99.99,,,-99.99,,2013-06-12 17:00:00,
2013-06-12 10:52:00,63.0,-99.9,-100.00,ESE,113,3.0,-999.0,-999,-99.99,,,-99.99,,2013-06-12 17:52:00,
2013-06-12 11:00:00,64.0,-99.9,-100.00,SSE,147,3.0,-999.0,-999,-99.99,,,-99.99,,2013-06-12 18:00:00,
2013-06-12 11:53:00,64.0,-99.9,-100.00,SSE,147,3.0,-999.0,-999,-99.99,,,-99.99,,2013-06-12 18:53:00,
2013-06-12 12:00:00,64.0,-99.9,-100.00,SSE,152,5.0,-999.0,-999,-99.99,,,-99.99,,2013-06-12 19:00:00,
2013-06-12 13:00:00,66.0,-99.9,-100.00,SE,143,3.0,-999.0,-999,-99.99,,,-99.99,,2013-06-12 20:00:00,
2013-06-12 14:00:00,69.0,-99.9,-100.00,NNE,23,3.0,-999.0,-999,-99.99,,,-99.99,,2013-06-12 21:00:00,
2013-06-12 14:53:00,69.0,-99.9,-100.00,NNE,23,3.0,-999.0,-999,-99.99,,,-99.99,,2013-06-12 21:53:00,
2013-06-12 15:00:00,69.0,-99.9,-100.00,NW,311,3.0,-999.0,-999,-99.99,,,-99.99,,2013-06-12 22:00:00,
2013-06-12 16:00:00,67.0,-99.9,-100.00,NW,325,5.0,-999.0,-999,-99.99,,,-99.99,,2013-06-12 23:00:00,
2013-06-12 16:53:00,67.0,-99.9,-100.00,NW,325,5.0,-999.0,-999,-99.99,,,-99.99,,2013-06-12 23:53:00,
2013-06-12 17:00:00,65.0,-99.9,-100.00,WNW,299,3.0,-999.0,-999,-99.99,,,-99.99,,2013-06-13 00:00:00,
2013-06-12 17:52:00,65.0,-99.9,-100.00,WNW,299,3.0,-999.0,-999,-99.99,,,-99.99,,2013-06-13 00:52:00,
2013-06-12 18:00:00,64.0,-99.9,-100.00,SSE,162,3.0,-999.0,-999,-99.99,,,-99.99,,2013-06-13 01:00:00,
2013-06-12 19:00:00,62.0,-99.9,-100.00,SSE,165,3.0,-999.0,-999,-99.99,,,-99.99,,2013-06-13 02:00:00,
2013-06-12 19:52:00,62.0,-99.9,-100.00,SSE,165,3.0,-999.0,-999,-99.99,,,-99.99,,2013-06-13 02:52:00,
2013-06-12 20:00:00,61.0,-99.9,-100.00,South,174,2.0,-999.0,-999,-99.99,,,-99.99,,2013-06-13 03:00:00,
2013-06-12 20:52:00,61.0,-99.9,-100.00,South,174,2.0,-999.0,-999,-99.99,,,-99.99,,2013-06-13 03:52:00,
2013-06-12 21:00:00,60.0,-99.9,-100.00,SSE,164,3.0,-999.0,-999,-99.99,,,-99.99,,2013-06-13 04:00:00,
2013-06-12 21:54:00,60.0,-99.9,-100.00,SSE,164,3.0,-999.0,-999,-99.99,,,-99.99,,2013-06-13 04:54:00,
2013-06-12 22:00:00,59.0,-99.9,-100.00,South,169,3.0,-999.0,-999,-99.99,,,-99.99,,2013-06-13 05:00:00,
2013-06-12 23:00:00,58.0,-99.9,-100.00,South,186,3.0,-999.0,-999,-99.99,,,-99.99,,2013-06-13 06:00:00,